When you browse on this site, cookies collect data to enhance your experience and personalize the content and advertising you see.
Visit our Privacy Policy to learn more. By continuing to use the site, you agree to this use of cookies and data.
  • In Portugal
  • List of Countries
  • For 7 days
  • Water Temperature
  • Satellite Maps
  • Weather Map
  • Weather Widgets
  • user-avatar
    Login

    Hourly Weather Mulhule

    Today, 24 May, Friday

    Time Temperature Precipitation Wind Pressure Humidity
    00:00 +35°C° 0 mm 4 mps 757 mmHg 54%
    01:00 +34°C° 0 mm 4 mps 757 mmHg 55%
    02:00 +34°C° 0 mm 4 mps 757 mmHg 57%
    03:00 +34°C° 0 mm 5 mps 757 mmHg 58%
    04:00 +34°C° 0 mm 5 mps 757 mmHg 59%
    05:00 +33°C° 0 mm 4 mps 757 mmHg 60%
    06:00 +33°C° 0 mm 4 mps 757 mmHg 61%
    07:00 +34°C° 0 mm 5 mps 757 mmHg 56%
    08:00 +36°C° 0 mm 5 mps 758 mmHg 51%
    09:00 +37°C° 0 mm 5 mps 758 mmHg 46%
    10:00 +39°C° 0 mm 6 mps 758 mmHg 43%
    11:00 +40°C° 0 mm 6 mps 757 mmHg 41%
    12:00 +41°C° 0 mm 7 mps 757 mmHg 38%
    13:00 +41°C° 0 mm 7 mps 756 mmHg 37%
    14:00 +41°C° 0 mm 7 mps 756 mmHg 36%
    15:00 +43°C° 0 mm 7 mps 755 mmHg 35%
    16:00 +41°C° 0 mm 7 mps 755 mmHg 37%
    17:00 +40°C° 0 mm 6 mps 755 mmHg 40%
    18:00 +39°C° 0 mm 6 mps 755 mmHg 42%
    19:00 +37°C° 0 mm 5 mps 755 mmHg 45%
    20:00 +37°C° 0 mm 5 mps 756 mmHg 48%
    21:00 +36°C° 0 mm 4 mps 756 mmHg 51%
    22:00 +35°C° 0 mm 4 mps 756 mmHg 53%
    23:00 +35°C° 0 mm 4 mps 756 mmHg 56%

    Tomorrow, 25 May, Saturday

    Time Temperature Precipitation Wind Pressure Humidity
    00:00 +34°C° 0 mm 4 mps 756 mmHg 59%
    01:00 +34°C° 0 mm 4 mps 756 mmHg 60%
    02:00 +34°C° 0 mm 5 mps 756 mmHg 61%
    03:00 +34°C° 0 mm 5 mps 755 mmHg 63%
    04:00 +33°C° 0 mm 5 mps 756 mmHg 63%
    05:00 +33°C° 0 mm 5 mps 756 mmHg 64%
    06:00 +33°C° 0 mm 4 mps 756 mmHg 64%
    07:00 +35°C° 0 mm 5 mps 757 mmHg 56%
    08:00 +36°C° 0 mm 5 mps 757 mmHg 47%
    09:00 +39°C° 0 mm 6 mps 758 mmHg 39%
    10:00 +40°C° 0 mm 6 mps 758 mmHg 36%
    11:00 +41°C° 0 mm 6 mps 757 mmHg 33%
    12:00 +42°C° 0 mm 6 mps 757 mmHg 30%
    13:00 +43°C° 0 mm 7 mps 756 mmHg 30%
    14:00 +43°C° 0 mm 7 mps 755 mmHg 30%
    15:00 +43°C° 0 mm 7 mps 755 mmHg 30%
    16:00 +41°C° 0 mm 6 mps 755 mmHg 32%
    17:00 +40°C° 0 mm 6 mps 754 mmHg 35%
    18:00 +39°C° 0 mm 5 mps 754 mmHg 38%
    19:00 +39°C° 0 mm 5 mps 755 mmHg 41%
    20:00 +37°C° 0 mm 4 mps 755 mmHg 43%
    21:00 +36°C° 0 mm 4 mps 756 mmHg 46%
    22:00 +36°C° 0 mm 3 mps 756 mmHg 47%
    23:00 +36°C° 0 mm 3 mps 756 mmHg 48%

    Day after tomorrow, 26 May, Sunday

    Time Temperature Precipitation Wind Pressure Humidity
    00:00 +35°C° 0 mm 3 mps 756 mmHg 50%
    01:00 +35°C° 0 mm 3 mps 755 mmHg 51%
    02:00 +35°C° 0 mm 4 mps 755 mmHg 51%
    03:00 +34°C° 0 mm 4 mps 755 mmHg 52%
    04:00 +34°C° 0 mm 4 mps 755 mmHg 52%
    05:00 +34°C° 0 mm 4 mps 755 mmHg 51%
    06:00 +34°C° 0 mm 3 mps 755 mmHg 51%
    07:00 +35°C° 0 mm 4 mps 756 mmHg 46%
    08:00 +37°C° 0 mm 4 mps 756 mmHg 41%
    09:00 +39°C° 0 mm 5 mps 757 mmHg 36%
    10:00 +40°C° 0 mm 5 mps 756 mmHg 34%
    11:00 +41°C° 0 mm 6 mps 756 mmHg 31%
    12:00 +42°C° 0 mm 6 mps 756 mmHg 28%
    13:00 +42°C° 0 mm 6 mps 755 mmHg 28%
    14:00 +44°C° 0 mm 6 mps 754 mmHg 27%
    15:00 +44°C° 0 mm 6 mps 754 mmHg 26%
    16:00 +42°C° 0 mm 6 mps 754 mmHg 29%
    17:00 +41°C° 0 mm 6 mps 754 mmHg 33%
    18:00 +40°C° 0 mm 5 mps 754 mmHg 36%
    19:00 +39°C° 0 mm 5 mps 754 mmHg 39%
    20:00 +37°C° 0 mm 4 mps 755 mmHg 43%
    21:00 +36°C° 0 mm 4 mps 755 mmHg 47%
    22:00 +36°C° 0 mm 4 mps 755 mmHg 48%
    23:00 +36°C° 0 mm 4 mps 755 mmHg 50%

    27 May, Monday

    Time Temperature Precipitation Wind Pressure Humidity
    00:00 +35°C° 0 mm 3 mps 755 mmHg 51%
    01:00 +35°C° 0 mm 4 mps 754 mmHg 52%
    02:00 +35°C° 0 mm 4 mps 754 mmHg 53%
    03:00 +34°C° 0 mm 4 mps 754 mmHg 54%
    04:00 +34°C° 0 mm 4 mps 754 mmHg 55%
    05:00 +34°C° 0 mm 4 mps 754 mmHg 57%
    06:00 +34°C° 0 mm 4 mps 755 mmHg 58%
    07:00 +35°C° 0 mm 5 mps 755 mmHg 52%
    08:00 +36°C° 0 mm 5 mps 756 mmHg 46%
    09:00 +39°C° 0 mm 6 mps 756 mmHg 40%
    10:00 +40°C° 0 mm 6 mps 756 mmHg 37%
    11:00 +41°C° 0 mm 7 mps 755 mmHg 34%
    12:00 +43°C° 0 mm 7 mps 755 mmHg 30%
    13:00 +43°C° 0 mm 7 mps 754 mmHg 30%
    14:00 +43°C° 0 mm 7 mps 754 mmHg 29%
    15:00 +43°C° 0 mm 7 mps 753 mmHg 28%
    16:00 +41°C° 0 mm 6 mps 753 mmHg 31%
    17:00 +40°C° 0 mm 6 mps 753 mmHg 35%
    18:00 +39°C° 0 mm 5 mps 754 mmHg 38%
    19:00 +39°C° 0 mm 5 mps 754 mmHg 41%
    20:00 +37°C° 0 mm 5 mps 755 mmHg 43%
    21:00 +36°C° 0 mm 4 mps 755 mmHg 46%
    22:00 +36°C° 0 mm 4 mps 755 mmHg 47%
    23:00 +35°C° 0 mm 4 mps 755 mmHg 49%

    28 May, Tuesday

    Time Temperature Precipitation Wind Pressure Humidity
    00:00 +35°C° 0 mm 4 mps 755 mmHg 50%
    01:00 +35°C° 0 mm 4 mps 754 mmHg 51%
    02:00 +34°C° 0 mm 4 mps 754 mmHg 52%
    03:00 +34°C° 0 mm 5 mps 754 mmHg 52%
    04:00 +34°C° 0 mm 5 mps 754 mmHg 53%
    05:00 +34°C° 0 mm 5 mps 755 mmHg 54%
    06:00 +34°C° 0 mm 5 mps 755 mmHg 55%
    07:00 +35°C° 0 mm 5 mps 755 mmHg 48%
    08:00 +38°C° 0 mm 6 mps 756 mmHg 41%
    09:00 +39°C° 0 mm 6 mps 756 mmHg 34%
    10:00 +40°C° 0 mm 6 mps 756 mmHg 31%
    11:00 +41°C° 0 mm 7 mps 755 mmHg 29%
    12:00 +43°C° 0 mm 7 mps 755 mmHg 26%
    13:00 +43°C° 0 mm 7 mps 754 mmHg 26%
    14:00 +43°C° 0 mm 7 mps 754 mmHg 26%
    15:00 +43°C° 0 mm 7 mps 753 mmHg 26%
    16:00 +41°C° 0 mm 6 mps 753 mmHg 30%
    17:00 +40°C° 0 mm 6 mps 753 mmHg 33%
    18:00 +39°C° 0 mm 5 mps 753 mmHg 37%
    19:00 +39°C° 0 mm 5 mps 754 mmHg 41%
    20:00 +37°C° 0 mm 5 mps 754 mmHg 45%
    21:00 +36°C° 0 mm 4 mps 755 mmHg 48%
    22:00 +36°C° 0 mm 4 mps 755 mmHg 49%
    23:00 +36°C° 0 mm 4 mps 755 mmHg 49%

    29 May, Wednesday

    Time Temperature Precipitation Wind Pressure Humidity
    00:00 +35°C° 0 mm 4 mps 754 mmHg 50%
    01:00 +35°C° 0 mm 5 mps 754 mmHg 52%
    02:00 +35°C° 0 mm 5 mps 754 mmHg 55%
    03:00 +35°C° 0 mm 6 mps 754 mmHg 57%
    04:00 +35°C° 0 mm 6 mps 754 mmHg 58%
    05:00 +34°C° 0 mm 5 mps 755 mmHg 59%
    06:00 +34°C° 0 mm 4 mps 755 mmHg 60%
    07:00 +36°C° 0 mm 5 mps 756 mmHg 54%
    08:00 +37°C° 0 mm 5 mps 756 mmHg 49%
    09:00 +39°C° 0 mm 6 mps 756 mmHg 43%
    10:00 +40°C° 0 mm 6 mps 756 mmHg 41%
    11:00 +41°C° 0 mm 6 mps 755 mmHg 39%
    12:00 +43°C° 0 mm 7 mps 755 mmHg 36%
    13:00 +43°C° 0 mm 7 mps 754 mmHg 36%
    14:00 +43°C° 0 mm 7 mps 753 mmHg 35%
    15:00 +43°C° 0 mm 7 mps 753 mmHg 35%
    16:00 +41°C° 0 mm 7 mps 753 mmHg 39%
    17:00 +40°C° 0 mm 6 mps 753 mmHg 42%
    18:00 +39°C° 0 mm 6 mps 753 mmHg 45%
    19:00 +39°C° 0 mm 5 mps 754 mmHg 49%
    20:00 +37°C° 0 mm 5 mps 754 mmHg 53%
    21:00 +36°C° 0 mm 5 mps 755 mmHg 57%
    22:00 +36°C° 0 mm 4 mps 755 mmHg 57%
    23:00 +36°C° 0 mm 4 mps 754 mmHg 57%
    Show more